Regional Weather Roundup
Issued by NWS Albany, NY

Home | Current Version | Previous Version | Text Only | Print | Product List | Glossary On
Versions: 1 2 3 4 5 6 7 8 9 10 11 12 13 14 15 16 17 18 19 20 21 22 23 24 25 26 27
000
ASUS41 KALY 231910
RWRALY

NEW YORK STATE HOURLY WEATHER ROUNDUP
NATIONAL WEATHER SERVICE ALBANY NY
300 PM EDT TUE AUG 23 2016

NOTE: "FAIR" INDICATES FEW OR NO CLOUDS BELOW 12,000 FEET WITH NO
SIGNIFICANT WEATHER AND/OR NO OBSTRUCTIONS TO VISIBILITY.

NYZ032-033-038>043-046>054-057>066-NYZ062>081-082-084-232000-
EAST


CITY           SKY/WX    TMP DP  RH WIND       PRES   REMARKS
ALBANY         MOSUNNY   78  53  41 W8G18     30.26F
GLENS FALLS    MOSUNNY   77  57  50 S5        30.23F
POUGHKEEPSIE   SUNNY     79  55  43 W8        30.26F
NEWBURGH       MOSUNNY   77  57  50 W6        30.30F
MONTGOMERY     MOSUNNY   79  58  48 W9        30.27F
WHITE PLAINS   MOSUNNY   78  51  38 VRB5      30.28F
ISLIP          MOSUNNY   77  52  41 S10G16    30.28F
NEW YORK CITY  MOSUNNY   82  49  31 SW6       30.27F
CENTRAL PARK   SUNNY     80  51  36 W3        30.30F
$$

NYZ005>009-017-018-044>046-055-056-232000-
CENTRAL


CITY           SKY/WX    TMP DP  RH WIND       PRES   REMARKS
FULTON         MOSUNNY   78  56  46 SW7       30.25F
SYRACUSE       MOSUNNY   77  55  46 SW9       30.25F
ROME           SUNNY     75  55  49 W10       30.27F
ELMIRA         SUNNY     78  54  43 W7        30.27F
BINGHAMTON     MOSUNNY   72  54  53 W3        30.31S
MONTICELLO     SUNNY     73  55  53 CALM      30.32F
$$

NYZ026>034-041>043-087-232000-
NORTH


CITY           SKY/WX    TMP DP  RH WIND       PRES   REMARKS
WATERTOWN      SUNNY     77  57  50 SW13G24   30.24S
FORT DRUM      NOT AVBL
MASSENA        MOSUNNY   80  57  45 SW18G26   30.19S
SARANAC LAKE   SUNNY     73  49  42 W12G17    30.24S
PLATTSBURGH    SUNNY     80  53  39 SW8       30.18F
$$

NYZ001>004-010>016-019>021-085-232000-
WEST


CITY           SKY/WX    TMP DP  RH WIND       PRES   REMARKS
NIAGARA FALLS  MOSUNNY   81  54  39 SW15G23   30.25F
BUFFALO        MOSUNNY   79  51  37 W16       30.26F
DUNKIRK        SUNNY     77  58  51 W10       30.27F
JAMESTOWN      SUNNY     73  54  49 SW10      30.31F
WELLSVILLE     SUNNY     74  51  44 VRB5      30.34F
ROCHESTER      MOSUNNY   81  55  40 VRB6G17   30.25F
PENN YAN       SUNNY     79  55  43 SW8       30.28F
$$

             KEY
       WCI = WIND CHILL INDEX
       VSB = VISIBILITY
       HX  = HEAT INDEX
$$




USA.gov is the U.S. government's official web portal to all federal, state and local government web resources and services.